contact:dominique.lefevre@mio.osupytheas.fr, maurice.libes@osupytheas.fr, didier.mallarino@osupytheas.fr
Project:EMSO http://www.emso-fr.org/EMSO-France
Depth: 2436.0 m
Title:EMSO Ligure Ouest : Data MII capteur MICROCAT
DateTime_Computer,Latitude,Longitude,Temperature,Conductivity,Pressure,DateTime_Instrument
DateTime_Computer,Latitude,Longitude,degC,S m-1,dbar,DateTime_Instrument
2023-12-14T00:01:50Z,42.805,6.029,13.3048,4.60152,2470.717,2023-12-14T02:04:20Z
2023-12-14T00:04:53Z,42.805,6.029,13.3059,4.60158,2470.73,2023-12-14T02:07:23Z
2023-12-14T00:07:56Z,42.805,6.029,13.3053,4.60150,2470.717,2023-12-14T02:10:26Z
2023-12-14T00:10:59Z,42.805,6.029,13.3047,4.60173,2470.717,2023-12-14T02:13:29Z
2023-12-14T00:14:02Z,42.805,6.029,13.3051,4.60170,2470.707,2023-12-14T02:16:32Z
2023-12-14T00:17:05Z,42.805,6.029,13.3058,4.60158,2470.754,2023-12-14T02:19:35Z
2023-12-14T00:20:08Z,42.805,6.029,13.3051,4.60144,2470.717,2023-12-14T02:22:38Z
2023-12-14T00:23:11Z,42.805,6.029,13.3046,4.60185,2470.67,2023-12-14T02:25:41Z
2023-12-14T00:26:15Z,42.805,6.029,13.3065,4.60167,2470.707,2023-12-14T02:28:44Z
2023-12-14T00:29:18Z,42.805,6.029,13.3054,4.60179,2470.693,2023-12-14T02:31:47Z
2023-12-14T00:32:21Z,42.805,6.029,13.3048,4.60173,2470.67,2023-12-14T02:34:50Z
2023-12-14T00:35:24Z,42.805,6.029,13.3051,4.60188,2470.693,2023-12-14T02:37:53Z
2023-12-14T00:38:27Z,42.805,6.029,13.3058,4.60175,2470.67,2023-12-14T02:40:57Z
2023-12-14T00:41:30Z,42.805,6.029,13.3047,4.60165,2470.684,2023-12-14T02:44:00Z
2023-12-14T00:44:33Z,42.805,6.029,13.3056,4.60187,2470.67,2023-12-14T02:47:03Z
2023-12-14T00:47:36Z,42.805,6.029,13.3063,4.60185,2470.67,2023-12-14T02:50:06Z
2023-12-14T00:50:39Z,42.805,6.029,13.3057,4.60172,2470.717,2023-12-14T02:53:09Z
2023-12-14T00:53:42Z,42.805,6.029,13.3069,4.60184,2470.646,2023-12-14T02:56:12Z
2023-12-14T00:56:45Z,42.805,6.029,13.3071,4.60193,2470.646,2023-12-14T02:59:15Z
2023-12-14T00:59:48Z,42.805,6.029,13.3080,4.60192,2470.684,2023-12-14T03:02:18Z
2023-12-14T01:02:52Z,42.805,6.029,13.3069,4.60189,2470.684,2023-12-14T03:05:21Z
2023-12-14T01:05:55Z,42.805,6.029,13.3053,4.60170,2470.67,2023-12-14T03:08:24Z
2023-12-14T01:08:58Z,42.805,6.029,13.3045,4.60174,2470.684,2023-12-14T03:11:27Z
2023-12-14T01:12:01Z,42.805,6.029,13.3056,4.60172,2470.661,2023-12-14T03:14:30Z
2023-12-14T01:15:04Z,42.805,6.029,13.3062,4.60181,2470.693,2023-12-14T03:17:34Z
2023-12-14T01:18:07Z,42.805,6.029,13.3050,4.60165,2470.661,2023-12-14T03:20:37Z
2023-12-14T01:21:10Z,42.805,6.029,13.3048,4.60164,2470.693,2023-12-14T03:23:40Z
2023-12-14T01:24:13Z,42.805,6.029,13.3047,4.60166,2470.661,2023-12-14T03:26:43Z
2023-12-14T01:27:16Z,42.805,6.029,13.3050,4.60170,2470.67,2023-12-14T03:29:46Z
2023-12-14T01:30:19Z,42.805,6.029,13.3052,4.60180,2470.684,2023-12-14T03:32:49Z
2023-12-14T01:33:22Z,42.805,6.029,13.3048,4.60183,2470.661,2023-12-14T03:35:52Z
2023-12-14T01:36:25Z,42.805,6.029,13.3051,4.60181,2470.67,2023-12-14T03:38:55Z
2023-12-14T01:39:29Z,42.805,6.029,13.3052,4.60198,2470.646,2023-12-14T03:41:58Z
2023-12-14T01:42:32Z,42.805,6.029,13.3065,4.60189,2470.646,2023-12-14T03:45:01Z
2023-12-14T01:45:35Z,42.805,6.029,13.3063,4.60174,2470.684,2023-12-14T03:48:04Z
2023-12-14T01:48:38Z,42.805,6.029,13.3069,4.60132,2470.67,2023-12-14T03:51:07Z
2023-12-14T01:51:41Z,42.805,6.029,13.3069,4.60132,2470.67,2023-12-14T03:54:11Z
2023-12-14T01:54:44Z,42.805,6.029,13.3070,4.60151,2470.624,2023-12-14T03:57:14Z
2023-12-14T01:57:47Z,42.805,6.029,13.3069,4.60147,2470.646,2023-12-14T04:00:17Z
2023-12-14T02:00:50Z,42.805,6.029,13.3056,4.60162,2470.646,2023-12-14T04:03:20Z
2023-12-14T02:03:53Z,42.805,6.029,13.3061,4.60175,2470.684,2023-12-14T04:06:23Z
2023-12-14T02:06:56Z,42.805,6.029,13.3058,4.60175,2470.661,2023-12-14T04:09:26Z
2023-12-14T02:09:59Z,42.805,6.029,13.3060,4.60146,2470.646,2023-12-14T04:12:29Z
2023-12-14T02:13:02Z,42.805,6.029,13.3063,4.60173,2470.661,2023-12-14T04:15:32Z
2023-12-14T02:16:06Z,42.805,6.029,13.3058,4.60145,2470.646,2023-12-14T04:18:35Z
2023-12-14T02:19:09Z,42.805,6.029,13.3047,4.60166,2470.646,2023-12-14T04:21:38Z
2023-12-14T02:22:12Z,42.805,6.029,13.3060,4.60162,2470.646,2023-12-14T04:24:41Z
2023-12-14T02:25:15Z,42.805,6.029,13.3052,4.60143,2470.684,2023-12-14T04:27:44Z
2023-12-14T02:28:18Z,42.805,6.029,13.3049,4.60175,2470.646,2023-12-14T04:30:48Z
2023-12-14T02:31:21Z,42.805,6.029,13.3054,4.60161,2470.67,2023-12-14T04:33:51Z
2023-12-14T02:34:24Z,42.805,6.029,13.3056,4.60153,2470.693,2023-12-14T04:36:54Z
2023-12-14T02:37:27Z,42.805,6.029,13.3054,4.60171,2470.646,2023-12-14T04:39:57Z
2023-12-14T02:40:30Z,42.805,6.029,13.3067,4.60180,2470.646,2023-12-14T04:43:00Z
2023-12-14T02:43:33Z,42.805,6.029,13.3071,4.60178,2470.646,2023-12-14T04:46:03Z
2023-12-14T02:46:36Z,42.805,6.029,13.3085,4.60168,2470.693,2023-12-14T04:49:06Z
2023-12-14T02:49:39Z,42.805,6.029,13.3071,4.60147,2470.73,2023-12-14T04:52:09Z
2023-12-14T02:52:43Z,42.805,6.029,13.3058,4.60173,2470.646,2023-12-14T04:55:12Z
2023-12-14T02:55:46Z,42.805,6.029,13.3069,4.60180,2470.646,2023-12-14T04:58:15Z
2023-12-14T02:58:49Z,42.805,6.029,13.3069,4.60152,2470.693,2023-12-14T05:01:18Z
2023-12-14T03:01:52Z,42.805,6.029,13.3041,4.60140,2470.684,2023-12-14T05:04:21Z
2023-12-14T03:04:55Z,42.805,6.029,13.3056,4.60145,2470.717,2023-12-14T05:07:25Z
2023-12-14T03:07:58Z,42.805,6.029,13.3061,4.60155,2470.684,2023-12-14T05:10:28Z
2023-12-14T03:11:01Z,42.805,6.029,13.3060,4.60128,2470.67,2023-12-14T05:13:31Z
2023-12-14T03:14:04Z,42.805,6.029,13.3065,4.60170,2470.661,2023-12-14T05:16:34Z
2023-12-14T03:17:07Z,42.805,6.029,13.3060,4.60172,2470.67,2023-12-14T05:19:37Z
2023-12-14T03:20:10Z,42.805,6.029,13.3063,4.60143,2470.693,2023-12-14T05:22:40Z
2023-12-14T03:23:13Z,42.805,6.029,13.3064,4.60167,2470.693,2023-12-14T05:25:43Z
2023-12-14T03:26:17Z,42.805,6.029,13.3067,4.60157,2470.693,2023-12-14T05:28:46Z
2023-12-14T03:29:20Z,42.805,6.029,13.3070,4.60185,2470.73,2023-12-14T05:31:49Z
2023-12-14T03:32:23Z,42.805,6.029,13.3066,4.60170,2470.717,2023-12-14T05:34:52Z
2023-12-14T03:35:26Z,42.805,6.029,13.3069,4.60179,2470.707,2023-12-14T05:37:55Z
2023-12-14T03:38:29Z,42.805,6.029,13.3054,4.60213,2470.693,2023-12-14T05:40:59Z
2023-12-14T03:41:32Z,42.805,6.029,13.3059,4.60141,2470.717,2023-12-14T05:44:02Z
2023-12-14T03:44:35Z,42.805,6.029,13.3037,4.60136,2470.717,2023-12-14T05:47:05Z
2023-12-14T03:47:38Z,42.805,6.029,13.3063,4.60135,2470.707,2023-12-14T05:50:08Z
2023-12-14T03:50:41Z,42.805,6.029,13.3051,4.60133,2470.693,2023-12-14T05:53:11Z
2023-12-14T03:53:44Z,42.805,6.029,13.3041,4.60128,2470.74,2023-12-14T05:56:14Z
2023-12-14T03:56:47Z,42.805,6.029,13.3069,4.60137,2470.754,2023-12-14T05:59:17Z
2023-12-14T03:59:50Z,42.805,6.029,13.3061,4.60125,2470.717,2023-12-14T06:02:20Z
2023-12-14T04:02:54Z,42.805,6.029,13.3041,4.60113,2470.717,2023-12-14T06:05:23Z
2023-12-14T04:05:57Z,42.805,6.029,13.3048,4.60127,2470.717,2023-12-14T06:08:26Z
2023-12-14T04:09:00Z,42.805,6.029,13.3039,4.60114,2470.74,2023-12-14T06:11:29Z
2023-12-14T04:12:03Z,42.805,6.029,13.3034,4.60113,2470.693,2023-12-14T06:14:32Z
2023-12-14T04:15:06Z,42.805,6.029,13.3036,4.60117,2470.754,2023-12-14T06:17:36Z
2023-12-14T04:18:09Z,42.805,6.029,13.3039,4.60117,2470.717,2023-12-14T06:20:39Z
2023-12-14T04:21:12Z,42.805,6.029,13.3036,4.60114,2470.74,2023-12-14T06:23:42Z
2023-12-14T04:24:15Z,42.805,6.029,13.3037,4.60112,2470.777,2023-12-14T06:26:45Z
2023-12-14T04:27:18Z,42.805,6.029,13.3037,4.60111,2470.777,2023-12-14T06:29:48Z
2023-12-14T04:30:21Z,42.805,6.029,13.3034,4.60110,2470.777,2023-12-14T06:32:51Z
2023-12-14T04:33:24Z,42.805,6.029,13.3037,4.60112,2470.75,2023-12-14T06:35:54Z
2023-12-14T04:36:27Z,42.805,6.029,13.3057,4.60122,2470.787,2023-12-14T06:38:57Z
2023-12-14T04:39:31Z,42.805,6.029,13.3037,4.60112,2470.787,2023-12-14T06:42:00Z
2023-12-14T04:42:34Z,42.805,6.029,13.3035,4.60122,2470.787,2023-12-14T06:45:03Z
2023-12-14T04:45:37Z,42.805,6.029,13.3036,4.60110,2470.787,2023-12-14T06:48:06Z
2023-12-14T04:48:40Z,42.805,6.029,13.3036,4.60112,2470.763,2023-12-14T06:51:09Z
2023-12-14T04:51:43Z,42.805,6.029,13.3041,4.60114,2470.787,2023-12-14T06:54:13Z
2023-12-14T04:54:46Z,42.805,6.029,13.3039,4.60110,2470.763,2023-12-14T06:57:16Z
2023-12-14T04:57:49Z,42.805,6.029,13.3038,4.60110,2470.847,2023-12-14T07:00:19Z
2023-12-14T05:00:52Z,42.805,6.029,13.3033,4.60110,2470.787,2023-12-14T07:03:22Z
2023-12-14T05:03:55Z,42.805,6.029,13.3039,4.60111,2470.777,2023-12-14T07:06:25Z
2023-12-14T05:06:58Z,42.805,6.029,13.3032,4.60110,2470.787,2023-12-14T07:09:28Z
2023-12-14T05:10:01Z,42.805,6.029,13.3035,4.60114,2470.81,2023-12-14T07:12:31Z
2023-12-14T05:13:04Z,42.805,6.029,13.3036,4.60109,2470.81,2023-12-14T07:15:34Z
2023-12-14T05:16:08Z,42.805,6.029,13.3033,4.60110,2470.81,2023-12-14T07:18:37Z
2023-12-14T05:19:11Z,42.805,6.029,13.3043,4.60110,2470.857,2023-12-14T07:21:40Z
2023-12-14T05:22:14Z,42.805,6.029,13.3041,4.60111,2470.833,2023-12-14T07:24:43Z
2023-12-14T05:25:17Z,42.805,6.029,13.3073,4.60136,2470.847,2023-12-14T07:27:46Z
2023-12-14T05:28:20Z,42.805,6.029,13.3048,4.60131,2470.88,2023-12-14T07:30:50Z
2023-12-14T05:31:23Z,42.805,6.029,13.3046,4.60120,2470.833,2023-12-14T07:33:53Z
2023-12-14T05:34:26Z,42.805,6.029,13.3062,4.60137,2470.857,2023-12-14T07:36:56Z
2023-12-14T05:37:29Z,42.805,6.029,13.3054,4.60122,2470.857,2023-12-14T07:39:59Z
2023-12-14T05:40:32Z,42.805,6.029,13.3043,4.60115,2470.857,2023-12-14T07:43:02Z
2023-12-14T05:43:35Z,42.805,6.029,13.3038,4.60122,2470.857,2023-12-14T07:46:05Z
2023-12-14T05:46:38Z,42.805,6.029,13.3056,4.60140,2470.857,2023-12-14T07:49:08Z
2023-12-14T05:49:41Z,42.805,6.029,13.3051,4.60137,2470.857,2023-12-14T07:52:11Z
2023-12-14T05:52:45Z,42.805,6.029,13.3051,4.60132,2470.857,2023-12-14T07:55:14Z
2023-12-14T05:55:48Z,42.805,6.029,13.3036,4.60119,2470.857,2023-12-14T07:58:17Z
2023-12-14T05:58:51Z,42.805,6.029,13.3056,4.60126,2470.871,2023-12-14T08:01:20Z
2023-12-14T06:01:54Z,42.805,6.029,13.3046,4.60140,2470.88,2023-12-14T08:04:23Z
2023-12-14T06:04:57Z,42.805,6.029,13.3058,4.60162,2470.88,2023-12-14T08:07:27Z
2023-12-14T06:08:00Z,42.805,6.029,13.3046,4.60152,2470.894,2023-12-14T08:10:30Z
2023-12-14T06:11:03Z,42.805,6.029,13.3050,4.60161,2470.894,2023-12-14T08:13:33Z
2023-12-14T06:14:06Z,42.805,6.029,13.3049,4.60157,2470.904,2023-12-14T08:16:36Z
2023-12-14T06:17:09Z,42.805,6.029,13.3054,4.60158,2470.88,2023-12-14T08:19:39Z
2023-12-14T06:20:12Z,42.805,6.029,13.3053,4.60160,2470.88,2023-12-14T08:22:42Z
2023-12-14T06:23:15Z,42.805,6.029,13.3051,4.60173,2470.88,2023-12-14T08:25:45Z
2023-12-14T06:26:18Z,42.805,6.029,13.3052,4.60147,2470.88,2023-12-14T08:28:48Z
2023-12-14T06:29:22Z,42.805,6.029,13.3048,4.60152,2470.88,2023-12-14T08:31:51Z
2023-12-14T06:32:25Z,42.805,6.029,13.3049,4.60143,2470.894,2023-12-14T08:34:54Z
2023-12-14T06:35:28Z,42.805,6.029,13.3048,4.60147,2470.904,2023-12-14T08:37:57Z
2023-12-14T06:38:31Z,42.805,6.029,13.3049,4.60152,2470.917,2023-12-14T08:41:00Z
2023-12-14T06:41:34Z,42.805,6.029,13.3049,4.60162,2470.927,2023-12-14T08:44:04Z
2023-12-14T06:44:37Z,42.805,6.029,13.3046,4.60142,2470.927,2023-12-14T08:47:07Z
2023-12-14T06:47:40Z,42.805,6.029,13.3048,4.60165,2470.95,2023-12-14T08:50:10Z
2023-12-14T06:50:43Z,42.805,6.029,13.3050,4.60157,2470.927,2023-12-14T08:53:13Z
2023-12-14T06:53:46Z,42.805,6.029,13.3053,4.60172,2470.927,2023-12-14T08:56:16Z
2023-12-14T06:56:49Z,42.805,6.029,13.3056,4.60150,2470.973,2023-12-14T08:59:19Z
2023-12-14T06:59:52Z,42.805,6.029,13.3057,4.60139,2470.95,2023-12-14T09:02:22Z
2023-12-14T07:02:55Z,42.805,6.029,13.3056,4.60157,2470.927,2023-12-14T09:05:25Z
2023-12-14T07:05:59Z,42.805,6.029,13.3063,4.60152,2470.927,2023-12-14T09:08:28Z
2023-12-14T07:09:02Z,42.805,6.029,13.3056,4.60160,2470.94,2023-12-14T09:11:31Z
2023-12-14T07:12:05Z,42.805,6.029,13.3045,4.60150,2470.927,2023-12-14T09:14:34Z
2023-12-14T07:15:08Z,42.805,6.029,13.3058,4.60155,2470.904,2023-12-14T09:17:37Z
2023-12-14T07:18:11Z,42.805,6.029,13.3052,4.60145,2470.94,2023-12-14T09:20:41Z
2023-12-14T07:21:14Z,42.805,6.029,13.3056,4.60138,2470.927,2023-12-14T09:23:44Z
2023-12-14T07:24:17Z,42.805,6.029,13.3046,4.60146,2470.95,2023-12-14T09:26:47Z
2023-12-14T07:27:20Z,42.805,6.029,13.3046,4.60139,2470.904,2023-12-14T09:29:50Z
2023-12-14T07:30:22Z,42.805,6.029,13.3046,4.60140,2470.927,2023-12-14T09:32:52Z
2023-12-14T07:33:25Z,42.805,6.029,13.3044,4.60153,2470.904,2023-12-14T09:35:55Z
2023-12-14T07:36:28Z,42.805,6.029,13.3046,4.60157,2470.927,2023-12-14T09:38:58Z
2023-12-14T07:39:31Z,42.805,6.029,13.3048,4.60157,2470.964,2023-12-14T09:42:01Z
2023-12-14T07:42:34Z,42.805,6.029,13.3043,4.60150,2470.973,2023-12-14T09:45:04Z
2023-12-14T07:45:38Z,42.805,6.029,13.3042,4.60150,2470.964,2023-12-14T09:48:07Z
2023-12-14T07:48:41Z,42.805,6.029,13.3049,4.60145,2470.94,2023-12-14T09:51:10Z
2023-12-14T07:51:44Z,42.805,6.029,13.3047,4.60135,2470.973,2023-12-14T09:54:13Z
2023-12-14T07:54:47Z,42.805,6.029,13.3051,4.60166,2470.927,2023-12-14T09:57:16Z
2023-12-14T07:57:50Z,42.805,6.029,13.3049,4.60157,2470.904,2023-12-14T10:00:19Z
2023-12-14T08:00:53Z,42.805,6.029,13.3048,4.60147,2470.987,2023-12-14T10:03:23Z
2023-12-14T08:03:56Z,42.805,6.029,13.3041,4.60144,2470.927,2023-12-14T10:06:26Z
2023-12-14T08:06:59Z,42.805,6.029,13.3045,4.60140,2470.927,2023-12-14T10:09:29Z
2023-12-14T08:10:02Z,42.805,6.029,13.3047,4.60141,2470.95,2023-12-14T10:12:32Z
2023-12-14T08:13:05Z,42.805,6.029,13.3050,4.60152,2470.964,2023-12-14T10:15:35Z
2023-12-14T08:16:08Z,42.805,6.029,13.3050,4.60144,2470.95,2023-12-14T10:18:38Z
2023-12-14T08:19:11Z,42.805,6.029,13.3060,4.60152,2470.964,2023-12-14T10:21:41Z
2023-12-14T08:22:15Z,42.805,6.029,13.3045,4.60145,2470.95,2023-12-14T10:24:44Z
2023-12-14T08:25:18Z,42.805,6.029,13.3045,4.60142,2470.964,2023-12-14T10:27:47Z
2023-12-14T08:28:21Z,42.805,6.029,13.3041,4.60130,2470.973,2023-12-14T10:30:50Z
2023-12-14T08:31:24Z,42.805,6.029,13.3054,4.60144,2470.964,2023-12-14T10:33:53Z
2023-12-14T08:34:27Z,42.805,6.029,13.3047,4.60135,2470.94,2023-12-14T10:36:57Z
2023-12-14T08:37:30Z,42.805,6.029,13.3047,4.60149,2470.95,2023-12-14T10:40:00Z
2023-12-14T08:40:33Z,42.805,6.029,13.3043,4.60157,2470.95,2023-12-14T10:43:03Z
2023-12-14T08:43:36Z,42.805,6.029,13.3046,4.60151,2470.964,2023-12-14T10:46:06Z
2023-12-14T08:46:39Z,42.805,6.029,13.3041,4.60150,2470.95,2023-12-14T10:49:09Z
2023-12-14T08:49:42Z,42.805,6.029,13.3043,4.60132,2470.964,2023-12-14T10:52:12Z
2023-12-14T08:52:45Z,42.805,6.029,13.3039,4.60131,2470.973,2023-12-14T10:55:15Z
2023-12-14T08:55:48Z,42.805,6.029,13.3051,4.60155,2470.95,2023-12-14T10:58:18Z
2023-12-14T08:58:52Z,42.805,6.029,13.3048,4.60158,2470.927,2023-12-14T11:01:21Z
2023-12-14T09:01:55Z,42.805,6.029,13.3044,4.60140,2470.973,2023-12-14T11:04:24Z
2023-12-14T09:04:58Z,42.805,6.029,13.3047,4.60150,2470.95,2023-12-14T11:07:27Z
2023-12-14T09:08:01Z,42.805,6.029,13.3049,4.60136,2470.95,2023-12-14T11:10:31Z
2023-12-14T09:11:04Z,42.805,6.029,13.3046,4.60141,2470.973,2023-12-14T11:13:34Z
2023-12-14T09:14:07Z,42.805,6.029,13.3048,4.60154,2470.95,2023-12-14T11:16:37Z
2023-12-14T09:17:10Z,42.805,6.029,13.3048,4.60147,2470.973,2023-12-14T11:19:40Z
2023-12-14T09:20:13Z,42.805,6.029,13.3047,4.60143,2470.964,2023-12-14T11:22:43Z
2023-12-14T09:23:16Z,42.805,6.029,13.3050,4.60141,2470.936,2023-12-14T11:25:46Z
2023-12-14T09:26:19Z,42.805,6.029,13.3043,4.60128,2470.964,2023-12-14T11:28:49Z
2023-12-14T09:29:22Z,42.805,6.029,13.3042,4.60142,2470.94,2023-12-14T11:31:52Z
2023-12-14T09:32:26Z,42.805,6.029,13.3048,4.60141,2470.973,2023-12-14T11:34:55Z
2023-12-14T09:35:29Z,42.805,6.029,13.3041,4.60146,2470.95,2023-12-14T11:37:58Z
2023-12-14T09:38:32Z,42.805,6.029,13.3054,4.60143,2470.927,2023-12-14T11:41:01Z
2023-12-14T09:41:35Z,42.805,6.029,13.3051,4.60140,2470.913,2023-12-14T11:44:04Z
2023-12-14T09:44:38Z,42.805,6.029,13.3043,4.60139,2470.927,2023-12-14T11:47:08Z
2023-12-14T09:47:41Z,42.805,6.029,13.3043,4.60137,2470.927,2023-12-14T11:50:11Z
2023-12-14T09:50:44Z,42.805,6.029,13.3046,4.60140,2470.927,2023-12-14T11:53:14Z
2023-12-14T09:53:47Z,42.805,6.029,13.3051,4.60144,2470.927,2023-12-14T11:56:17Z
2023-12-14T09:56:50Z,42.805,6.029,13.3041,4.60142,2470.95,2023-12-14T11:59:20Z
2023-12-14T09:59:53Z,42.805,6.029,13.3038,4.60147,2470.927,2023-12-14T12:02:23Z
2023-12-14T10:02:56Z,42.805,6.029,13.3043,4.60132,2470.964,2023-12-14T12:05:26Z
2023-12-14T10:05:59Z,42.805,6.029,13.3047,4.60157,2470.927,2023-12-14T12:08:29Z
2023-12-14T10:09:03Z,42.805,6.029,13.3048,4.60152,2470.94,2023-12-14T12:11:32Z
2023-12-14T10:12:06Z,42.805,6.029,13.3043,4.60141,2470.927,2023-12-14T12:14:35Z
2023-12-14T10:15:09Z,42.805,6.029,13.3051,4.60145,2470.95,2023-12-14T12:17:38Z
2023-12-14T10:18:12Z,42.805,6.029,13.3047,4.60135,2470.904,2023-12-14T12:20:42Z
2023-12-14T10:21:15Z,42.805,6.029,13.3048,4.60145,2470.964,2023-12-14T12:23:45Z
2023-12-14T10:24:18Z,42.805,6.029,13.3052,4.60144,2470.94,2023-12-14T12:26:48Z
2023-12-14T10:27:21Z,42.805,6.029,13.3039,4.60145,2470.927,2023-12-14T12:29:51Z
2023-12-14T10:30:24Z,42.805,6.029,13.3047,4.60140,2470.927,2023-12-14T12:32:54Z
2023-12-14T10:33:27Z,42.805,6.029,13.3039,4.60145,2470.927,2023-12-14T12:35:57Z
2023-12-14T10:36:30Z,42.805,6.029,13.3054,4.60137,2470.904,2023-12-14T12:39:00Z
2023-12-14T10:39:33Z,42.805,6.029,13.3038,4.60132,2470.927,2023-12-14T12:42:03Z
2023-12-14T10:42:37Z,42.805,6.029,13.3039,4.60140,2470.927,2023-12-14T12:45:06Z
2023-12-14T10:45:40Z,42.805,6.029,13.3038,4.60131,2470.904,2023-12-14T12:48:09Z
2023-12-14T10:48:43Z,42.805,6.029,13.3048,4.60152,2470.894,2023-12-14T12:51:12Z
2023-12-14T10:51:46Z,42.805,6.029,13.3049,4.60151,2470.94,2023-12-14T12:54:15Z
2023-12-14T10:54:49Z,42.805,6.029,13.3047,4.60150,2470.904,2023-12-14T12:57:19Z
2023-12-14T10:57:52Z,42.805,6.029,13.3051,4.60155,2470.88,2023-12-14T13:00:22Z
2023-12-14T11:00:55Z,42.805,6.029,13.3044,4.60148,2470.917,2023-12-14T13:03:25Z
2023-12-14T11:03:58Z,42.805,6.029,13.3053,4.60142,2470.904,2023-12-14T13:06:28Z
2023-12-14T11:07:01Z,42.805,6.029,13.3046,4.60141,2470.917,2023-12-14T13:09:31Z
2023-12-14T11:10:04Z,42.805,6.029,13.3048,4.60154,2470.917,2023-12-14T13:12:34Z
2023-12-14T11:13:07Z,42.805,6.029,13.3039,4.60141,2470.88,2023-12-14T13:15:37Z
2023-12-14T11:16:11Z,42.805,6.029,13.3048,4.60144,2470.904,2023-12-14T13:18:40Z
2023-12-14T11:19:14Z,42.805,6.029,13.3046,4.60141,2470.927,2023-12-14T13:21:43Z
2023-12-14T11:22:17Z,42.805,6.029,13.3043,4.60142,2470.94,2023-12-14T13:24:46Z
2023-12-14T11:25:20Z,42.805,6.029,13.3044,4.60155,2470.894,2023-12-14T13:27:49Z
2023-12-14T11:28:23Z,42.805,6.029,13.3045,4.60143,2470.88,2023-12-14T13:30:53Z
2023-12-14T11:31:26Z,42.805,6.029,13.3046,4.60140,2470.871,2023-12-14T13:33:56Z
2023-12-14T11:34:29Z,42.805,6.029,13.3048,4.60141,2470.88,2023-12-14T13:36:59Z
2023-12-14T11:37:32Z,42.805,6.029,13.3046,4.60137,2470.88,2023-12-14T13:40:02Z
2023-12-14T11:40:35Z,42.805,6.029,13.3049,4.60152,2470.871,2023-12-14T13:43:05Z
2023-12-14T11:43:38Z,42.805,6.029,13.3043,4.60147,2470.857,2023-12-14T13:46:08Z
2023-12-14T11:46:41Z,42.805,6.029,13.3049,4.60135,2470.857,2023-12-14T13:49:11Z
2023-12-14T11:49:44Z,42.805,6.029,13.3044,4.60137,2470.894,2023-12-14T13:52:14Z
2023-12-14T11:52:48Z,42.805,6.029,13.3043,4.60143,2470.857,2023-12-14T13:55:17Z
2023-12-14T11:55:51Z,42.805,6.029,13.3046,4.60150,2470.833,2023-12-14T13:58:20Z
2023-12-14T11:58:54Z,42.805,6.029,13.3043,4.60151,2470.871,2023-12-14T14:01:23Z
2023-12-14T12:01:57Z,42.805,6.029,13.3041,4.60141,2470.857,2023-12-14T14:04:27Z
2023-12-14T12:05:00Z,42.805,6.029,13.3043,4.60130,2470.81,2023-12-14T14:07:30Z
2023-12-14T12:08:03Z,42.805,6.029,13.3051,4.60152,2470.857,2023-12-14T14:10:33Z
2023-12-14T12:11:06Z,42.805,6.029,13.3040,4.60145,2470.857,2023-12-14T14:13:36Z
2023-12-14T12:14:09Z,42.805,6.029,13.3043,4.60140,2470.857,2023-12-14T14:16:39Z
2023-12-14T12:17:12Z,42.805,6.029,13.3044,4.60150,2470.833,2023-12-14T14:19:42Z
2023-12-14T12:20:15Z,42.805,6.029,13.3045,4.60161,2470.847,2023-12-14T14:22:45Z
2023-12-14T12:23:18Z,42.805,6.029,13.3041,4.60140,2470.81,2023-12-14T14:25:48Z
2023-12-14T12:26:22Z,42.805,6.029,13.3046,4.60139,2470.847,2023-12-14T14:28:51Z
2023-12-14T12:29:25Z,42.805,6.029,13.3051,4.60151,2470.833,2023-12-14T14:31:54Z
2023-12-14T12:32:28Z,42.805,6.029,13.3039,4.60166,2470.81,2023-12-14T14:34:57Z
2023-12-14T12:35:31Z,42.805,6.029,13.3045,4.60148,2470.847,2023-12-14T14:38:01Z
2023-12-14T12:38:34Z,42.805,6.029,13.3042,4.60135,2470.824,2023-12-14T14:41:04Z
2023-12-14T12:41:37Z,42.805,6.029,13.3045,4.60146,2470.833,2023-12-14T14:44:07Z
2023-12-14T12:44:40Z,42.805,6.029,13.3043,4.60148,2470.81,2023-12-14T14:47:10Z
2023-12-14T12:47:43Z,42.805,6.029,13.3041,4.60133,2470.81,2023-12-14T14:50:13Z
2023-12-14T12:50:46Z,42.805,6.029,13.3043,4.60139,2470.81,2023-12-14T14:53:16Z
2023-12-14T12:53:49Z,42.805,6.029,13.3041,4.60143,2470.8,2023-12-14T14:56:19Z
2023-12-14T12:56:52Z,42.805,6.029,13.3040,4.60135,2470.8,2023-12-14T14:59:22Z
2023-12-14T12:59:56Z,42.805,6.029,13.3046,4.60147,2470.787,2023-12-14T15:02:25Z
2023-12-14T13:02:59Z,42.805,6.029,13.3051,4.60137,2470.787,2023-12-14T15:05:28Z
2023-12-14T13:06:02Z,42.805,6.029,13.3043,4.60150,2470.81,2023-12-14T15:08:31Z
2023-12-14T13:09:05Z,42.805,6.029,13.3043,4.60149,2470.81,2023-12-14T15:11:35Z
2023-12-14T13:12:08Z,42.805,6.029,13.3039,4.60135,2470.787,2023-12-14T15:14:38Z
2023-12-14T13:15:11Z,42.805,6.029,13.3042,4.60139,2470.787,2023-12-14T15:17:41Z
2023-12-14T13:18:14Z,42.805,6.029,13.3039,4.60129,2470.777,2023-12-14T15:20:44Z
2023-12-14T13:21:17Z,42.805,6.029,13.3043,4.60145,2470.787,2023-12-14T15:23:47Z
2023-12-14T13:24:20Z,42.805,6.029,13.3044,4.60140,2470.8,2023-12-14T15:26:50Z
2023-12-14T13:27:23Z,42.805,6.029,13.3042,4.60142,2470.787,2023-12-14T15:29:53Z
2023-12-14T13:30:28Z,42.805,6.029,13.3046,4.60156,2470.773,2023-12-14T15:32:57Z
2023-12-14T13:33:31Z,42.805,6.029,13.3054,4.60142,2470.787,2023-12-14T15:36:01Z
2023-12-14T13:36:34Z,42.805,6.029,13.3045,4.60145,2470.763,2023-12-14T15:39:04Z
2023-12-14T13:39:37Z,42.805,6.029,13.3043,4.60139,2470.787,2023-12-14T15:42:07Z
2023-12-14T13:42:40Z,42.805,6.029,13.3042,4.60129,2470.777,2023-12-14T15:45:10Z
2023-12-14T13:45:43Z,42.805,6.029,13.3043,4.60147,2470.763,2023-12-14T15:48:13Z
2023-12-14T13:48:46Z,42.805,6.029,13.3044,4.60140,2470.8,2023-12-14T15:51:16Z
2023-12-14T13:51:49Z,42.805,6.029,13.3041,4.60140,2470.777,2023-12-14T15:54:19Z
2023-12-14T13:54:52Z,42.805,6.029,13.3041,4.60147,2470.763,2023-12-14T15:57:22Z
2023-12-14T13:57:56Z,42.805,6.029,13.3049,4.60143,2470.754,2023-12-14T16:00:25Z
2023-12-14T14:00:59Z,42.805,6.029,13.3053,4.60144,2470.787,2023-12-14T16:03:28Z
2023-12-14T14:04:02Z,42.805,6.029,13.3060,4.60143,2470.74,2023-12-14T16:06:31Z
2023-12-14T14:07:05Z,42.805,6.029,13.3046,4.60155,2470.777,2023-12-14T16:09:35Z
2023-12-14T14:10:08Z,42.805,6.029,13.3049,4.60155,2470.787,2023-12-14T16:12:38Z
2023-12-14T14:13:11Z,42.805,6.029,13.3039,4.60135,2470.717,2023-12-14T16:15:41Z
2023-12-14T14:16:14Z,42.805,6.029,13.3046,4.60148,2470.754,2023-12-14T16:18:44Z
2023-12-14T14:19:17Z,42.805,6.029,13.3051,4.60148,2470.787,2023-12-14T16:21:47Z
2023-12-14T14:22:20Z,42.805,6.029,13.3056,4.60147,2470.74,2023-12-14T16:24:50Z
2023-12-14T14:25:23Z,42.805,6.029,13.3050,4.60143,2470.74,2023-12-14T16:27:53Z
2023-12-14T14:28:26Z,42.805,6.029,13.3039,4.60133,2470.74,2023-12-14T16:30:56Z
2023-12-14T14:31:30Z,42.805,6.029,13.3045,4.60157,2470.717,2023-12-14T16:33:59Z
2023-12-14T14:34:33Z,42.805,6.029,13.3056,4.60166,2470.777,2023-12-14T16:37:02Z
2023-12-14T14:37:36Z,42.805,6.029,13.3047,4.60140,2470.74,2023-12-14T16:40:05Z
2023-12-14T14:40:39Z,42.805,6.029,13.3044,4.60138,2470.754,2023-12-14T16:43:08Z
2023-12-14T14:43:42Z,42.805,6.029,13.3059,4.60134,2470.717,2023-12-14T16:46:12Z
2023-12-14T14:46:45Z,42.805,6.029,13.3049,4.60140,2470.763,2023-12-14T16:49:15Z
2023-12-14T14:49:48Z,42.805,6.029,13.3044,4.60144,2470.74,2023-12-14T16:52:18Z
2023-12-14T14:52:51Z,42.805,6.029,13.3049,4.60149,2470.74,2023-12-14T16:55:21Z
2023-12-14T14:55:54Z,42.805,6.029,13.3055,4.60152,2470.763,2023-12-14T16:58:24Z
2023-12-14T14:58:57Z,42.805,6.029,13.3048,4.60133,2470.754,2023-12-14T17:01:27Z
2023-12-14T15:02:00Z,42.805,6.029,13.3044,4.60160,2470.787,2023-12-14T17:04:30Z